STARLINK-11476, 62228

Orbit data source: Space-Track

STARLINK-11476, 62228 is a payload satellite owned by SpaceX/Seattle (US) in LEO that was launched on Thu, 05 Dec 2024 UTC via an FALCON 9 launch vehicle from the Air Force Western Test Range (AFWTR). Payload-class satellites include a variety of spacecraft equipped with specific instruments for various scientific and technological missions. These include communications satellites like Starlink; space stations such as the ISS; scientific satellites like the Hubble; Earth observation satellites from companies like Planet Labs, Umbra, and HawkEye 360; GPS; miniature CubeSats for education and research; and military/defense satellites.

Loading next visibility...
Identifier
62228, 2024-231L
Orbit
LEO
Country
Flag of USUS
Related business
Manufacturer
SpaceX/Seattle
Mission
Operational Commercial Communications
Bus & Motor
STARLINK V2MD, Unknown motor
Mass
960 kg wet, ~910 kg dry
Launch date (UTC)
2024-12-05 (1 year ago)
Launch vehicle
FALCON 9
Launch site
Air Force Western Test Range (AFWTR)
Object type
Payload
Rocket body
Debris
Shape & HBR
Box + 2 Pan, 18.1 m
Radar Cross Section
36.964 m², Large (>1 m²)

Expand to show TLE details & history
Last TLE update: 13 hours ago

TLE from 13 hours ago
0 STARLINK-11476
1 62228U 24231L   26123.87619580  .00164043  00000-0  13299-2 0  9994
2 62228  53.1564 188.8819 0001813  53.9926 306.1260 15.69752814 82091
Epoch: 2026-05-03T21:01Z
TLE epoch observation values (Epoch: 2026-05-03T21:01:43.317Z)
Latitude
0.00002°
Longitude
11.67797°
Altitude
359.799 km
Speed
7.695 km/s
True Right ascension
12h 35m 31s
True Declination
0° 00' 00"
Sunlit
Object was in full shadow at epoch
Visualization orbit readout
Latitude
Unknown
Longitude
Unknown
Altitude
Unknown
Speed
Unknown
Apparent Right ascension
Unknown
Apparent Declination
Unknown
Sunlit
N/A
Visualization observer readout
Local Sidereal Time
17:45:39
Azimuth
Unknown
Elevation
Unknown
Doppler factor
Unknown
Orbital elements
Apogee altitude
361.087 km
Perigee altitude
358.644 km
Semi-major axis
6,738.003 km
Eccentricity
0.00018
Inclination
53.1564°
RAAN
188.8819°
Arg. of periapsis
53.9926°
True anomaly
306.10922°
Mean anomaly
306.126°
Eccentric anomaly
306.11761°
Mean motion
3.92416 °/min
Orbital period
91.74 mins
BSTAR
0.0013299
Loading maneuver chart data...
Computing Atmospheric mass density...
Loading historical data...
Loading historical data...
Loading historical data...
Loading historical data...
Loading historical data...
Loading historical data...
Loading historical data...

Documentation

Showing up to 5 results
|